Regional Weather Roundup
Issued by NWS

Home | Current Version | Previous Version | Text Only | Print | Product List | Glossary Off
Versions: 1 2 3 4 5 6 7 8 9 10 11 12 13 14 15 16 17 18 19 20 21 22 23 24 25 26 27 28 29 30 31 32 33 34 35 36 37 38 39 40 41 42 43 44 45 46 47 48 49 50

000
ASUS43 KTOP 040959
RWRKS

WEATHER ROUNDUP FOR KANSAS
NATIONAL WEATHER SERVICE GOODLAND KS
500 AM CDT SAT JUL 04 2015

NOTE:  "FAIR" INDICATES FEW OR NO CLOUDS BELOW 12,000 FEET WITH NO
SIGNIFICANT WEATHER AND/OR OBSTRUCTIONS TO VISIBILITY.

KSZ001>006-013>018-027>032-041>047-041100-
NORTHWEST KANSAS

CITY           SKY/WX    TMP DP  RH WIND       PRES   REMARKS
GOODLAND       PTCLDY    64  59  83 S14       30.01F
HAYS           CLEAR     63  55  77 E3        30.00R
HILL CITY      MOCLDY    64  60  87 CALM      30.00S
RUSSELL        CLEAR     63  61  93 SE8       29.98S
$$

KSZ061>065-074>080-084>089-041100-
SOUTHWEST KANSAS

CITY           SKY/WX    TMP DP  RH WIND       PRES   REMARKS
DODGE CITY     CLEAR     64  59  83 S8        30.02S
ELKHART          N/A     62  57  83 S3          N/A
GARDEN CITY    PTCLDY    65  62  90 S8        30.00F
GREAT BEND     MOCLDY    64  61  88 S6        30.01R
LIBERAL        PTCLDY    70  63  78 E5        30.04F
$$

KSZ066>073-081>083-090>101-041100-
SOUTHEAST KANSAS

CITY           SKY/WX    TMP DP  RH WIND       PRES   REMARKS
CHANUTE        MOCLDY    67  62  84 CALM      29.97S
COFFEYVILLE    CLEAR     67  65  93 CALM      29.95S
HUTCHINSON     CLEAR     65  61  87 CALM      30.00R
MEDICINE LODGE   N/A     65  62  90 CALM      29.99R
NEWTON         CLEAR     64  55  72 E3        30.02R
PARSONS        MOCLDY    68  66  93 VRB3      29.97S
WICHITA INTL   CLEAR     67  62  84 E7        29.98S
WICHITA JABRA  CLEAR     64  61  90 CALM      29.99R
WINFIELD       CLEAR     64  62  93 CALM      29.99R
$$

KSZ007>012-019>026-033>040-048>060-102>105-041100-
NORTHEAST KANSAS

CITY           SKY/WX    TMP DP  RH WIND       PRES   REMARKS
CONCORDIA      CLEAR     59  55  87 CALM      30.00R
EMPORIA        CLEAR     61  60  97 CALM      29.99S
LAWRENCE       CLEAR     58  57  97 N5        29.99S FOG
MANHATTAN      CLEAR     59  58  96 CALM      29.99R
OLATHE IND     CLEAR     62  58  86 CALM      29.99S
OLATHE EXE     CLEAR     62  59  90 CALM      29.98S
SALINA         CLEAR     64  57  78 S5        29.99F
TOPEKA BILLARD FOG       61  60  97 NW3       29.99S VSB 1
TOPEKA FORBES  CLEAR     61  58  90 CALM      29.99R
$$


USA.gov is the U.S. government's official web portal to all federal, state and local government web resources and services.